WZZ2251 LHBP-EKCH

Flight info

Callsign WZZ2251
Flight time 1h 36m
Altitude 24000
Route LITKU Y301 KALIF/N0447F360 DCT BILNA DCT REGLI L617 ADVAB L619 DENKO L996 GOSOT/N0428F280 L996 ROE M743 TIDVU
Aircraft A320/M-SDE3FGHIRWY/LB1

Departure

Time 2026-05-04 17:52
Airport Budapest Liszt Ferenc International Airport (LHBP)

Arrival

Time 2026-05-04 19:29
Airport Copenhagen Kastrup Airport (EKCH)
Time Latitude Longitude Altitude Speed Heading
2026-05-04 16:39 47.43587 19.26344 458 ft 0 kts 222°
2026-05-04 17:38 47.43592 19.26351 457 ft 2 kts 219°
2026-05-04 17:39 47.43617 19.26383 456 ft 2 kts 222°
2026-05-04 17:39 47.43625 19.26403 455 ft 2 kts 288°
2026-05-04 17:39 47.43618 19.26425 455 ft 2 kts 307°
2026-05-04 17:40 47.43608 19.26443 455 ft 1 kts 312°
2026-05-04 17:40 47.43605 19.26448 455 ft 0 kts 313°
2026-05-04 17:44 47.43609 19.26442 455 ft 3 kts 313°
2026-05-04 17:44 47.43629 19.26410 454 ft 5 kts 311°
2026-05-04 17:44 47.43658 19.26363 457 ft 7 kts 315°
2026-05-04 17:44 47.43707 19.26361 457 ft 8 kts 32°
2026-05-04 17:45 47.43756 19.26417 458 ft 9 kts 24°
2026-05-04 17:45 47.43814 19.26377 458 ft 10 kts 310°
2026-05-04 17:45 47.43869 19.26286 458 ft 13 kts 313°
2026-05-04 17:45 47.43936 19.26179 458 ft 15 kts 312°
2026-05-04 17:46 47.44011 19.26058 458 ft 17 kts 313°
2026-05-04 17:46 47.44095 19.25924 458 ft 19 kts 312°
2026-05-04 17:46 47.44186 19.25776 458 ft 20 kts 312°
2026-05-04 17:46 47.44266 19.25647 458 ft 16 kts 313°
2026-05-04 17:47 47.44364 19.25558 459 ft 17 kts 351°
2026-05-04 17:47 47.44444 19.25581 461 ft 9 kts 28°
2026-05-04 17:47 47.44462 19.25600 463 ft 0 kts 39°
2026-05-04 17:49 47.44467 19.25606 463 ft 2 kts 40°
2026-05-04 17:49 47.44488 19.25641 467 ft 7 kts 54°
2026-05-04 17:49 47.44509 19.25726 476 ft 10 kts 78°
2026-05-04 17:50 47.44504 19.25823 474 ft 9 kts 125°
2026-05-04 17:50 47.44497 19.25836 476 ft 0 kts 131°
2026-05-04 17:51 47.44491 19.25845 473 ft 5 kts 131°
2026-05-04 17:51 47.44339 19.26089 474 ft 67 kts 133°
2026-05-04 17:51 47.43892 19.26811 470 ft 121 kts 132°
2026-05-04 17:51 47.43230 19.27879 461 ft 160 kts 132°
2026-05-04 17:52 47.42475 19.29132 954 ft 162 kts 134°
2026-05-04 17:52 47.41827 19.30507 1535 ft 165 kts 124°
2026-05-04 17:52 47.41252 19.31974 2080 ft 166 kts 123°
2026-05-04 17:52 47.40685 19.33468 2589 ft 167 kts 123°
2026-05-04 17:53 47.40117 19.34976 3092 ft 169 kts 123°
2026-05-04 17:53 47.39543 19.36495 3575 ft 171 kts 123°
2026-05-04 17:53 47.38930 19.38102 3828 ft 191 kts 123°
2026-05-04 17:53 47.38395 19.40018 4030 ft 218 kts 98°
2026-05-04 17:54 47.38779 19.42311 4269 ft 249 kts 59°
2026-05-04 17:54 47.39944 19.44378 4644 ft 274 kts 45°
2026-05-04 17:54 47.41396 19.46271 5357 ft 282 kts 36°
2026-05-04 17:54 47.43172 19.47511 6211 ft 285 kts 12°
2026-05-04 17:55 47.45139 19.47915 7054 ft 287 kts
2026-05-04 17:55 47.47132 19.48226 7868 ft 290 kts
2026-05-04 17:55 47.49149 19.48522 8664 ft 293 kts
2026-05-04 17:55 47.51193 19.48817 9445 ft 297 kts
2026-05-04 17:56 47.53263 19.49122 10180 ft 301 kts
2026-05-04 17:56 47.55411 19.49443 10485 ft 322 kts
2026-05-04 17:56 47.57718 19.49792 10641 ft 344 kts
2026-05-04 17:56 47.60141 19.50162 11107 ft 354 kts
2026-05-04 17:57 47.62605 19.50537 11751 ft 358 kts
2026-05-04 17:57 47.65094 19.50913 12423 ft 361 kts
2026-05-04 17:57 47.67602 19.51290 13101 ft 364 kts
2026-05-04 17:57 47.70132 19.51673 13782 ft 367 kts
2026-05-04 17:58 47.72684 19.52064 14388 ft 370 kts
2026-05-04 17:58 47.75252 19.52458 14987 ft 372 kts
2026-05-04 17:58 47.77837 19.52851 15586 ft 375 kts
2026-05-04 17:58 47.80436 19.53248 16172 ft 377 kts
2026-05-04 17:59 47.83055 19.53652 16755 ft 379 kts
2026-05-04 17:59 47.85686 19.54060 17373 ft 382 kts
2026-05-04 17:59 47.91001 19.54884 18563 ft 386 kts
2026-05-04 18:00 47.93648 19.55290 19088 ft 389 kts
2026-05-04 18:00 47.96355 19.55541 19631 ft 391 kts 355°
2026-05-04 18:00 47.99015 19.54744 20170 ft 392 kts 338°
2026-05-04 18:00 48.01480 19.53002 20705 ft 393 kts 332°
2026-05-04 18:01 48.03928 19.51142 21239 ft 396 kts 332°
2026-05-04 18:01 48.06390 19.49255 21752 ft 399 kts 332°
2026-05-04 18:01 48.08866 19.47349 22242 ft 402 kts 332°
2026-05-04 18:02 48.13868 19.43499 23214 ft 407 kts 332°
2026-05-04 18:02 48.16398 19.41559 23675 ft 410 kts 332°
2026-05-04 18:02 48.18942 19.39613 24077 ft 412 kts 332°
2026-05-04 18:02 48.21502 19.37654 24473 ft 414 kts 332°
2026-05-04 18:03 48.24070 19.35681 24867 ft 416 kts 332°
2026-05-04 18:03 48.26649 19.33696 25241 ft 418 kts 332°
2026-05-04 18:03 48.29240 19.31701 25603 ft 419 kts 332°
2026-05-04 18:03 48.31843 19.29697 25984 ft 421 kts 332°
2026-05-04 18:04 48.34456 19.27682 26344 ft 423 kts 332°
2026-05-04 18:04 48.37080 19.25655 26706 ft 425 kts 332°
2026-05-04 18:04 48.42363 19.21566 27416 ft 429 kts 332°
2026-05-04 18:05 48.45022 19.19507 27778 ft 431 kts 332°
2026-05-04 18:05 48.47695 19.17435 28126 ft 433 kts 332°
2026-05-04 18:05 48.50380 19.15350 28468 ft 435 kts 332°
2026-05-04 18:05 48.53077 19.13253 28803 ft 437 kts 332°
2026-05-04 18:06 48.58495 19.09029 29592 ft 438 kts 332°
2026-05-04 18:06 48.61195 19.06919 30083 ft 436 kts 332°
2026-05-04 18:06 48.63885 19.04818 30502 ft 435 kts 332°
2026-05-04 18:07 48.66569 19.02720 30904 ft 434 kts 332°
2026-05-04 18:07 48.69245 19.00622 31319 ft 433 kts 332°
2026-05-04 18:07 48.71914 18.98524 31737 ft 431 kts 332°
2026-05-04 18:07 48.74571 18.96432 32163 ft 430 kts 331°
2026-05-04 18:08 48.77220 18.94343 32604 ft 429 kts 331°
2026-05-04 18:08 48.79865 18.92261 33023 ft 428 kts 331°
2026-05-04 18:08 48.82503 18.90186 33454 ft 426 kts 331°
2026-05-04 18:08 48.85131 18.88115 33888 ft 425 kts 331°
2026-05-04 18:09 48.90365 18.83971 34592 ft 423 kts 331°
2026-05-04 18:09 48.95580 18.79837 35204 ft 422 kts 331°
2026-05-04 18:10 48.98182 18.77769 35492 ft 422 kts 331°
2026-05-04 18:10 49.00781 18.75702 35754 ft 422 kts 331°
2026-05-04 18:10 49.03380 18.73635 35946 ft 421 kts 331°
2026-05-04 18:10 49.05985 18.71559 36009 ft 425 kts 331°
2026-05-04 18:11 49.11269 18.67332 36005 ft 431 kts 331°
2026-05-04 18:11 49.16579 18.63080 36004 ft 431 kts 331°
2026-05-04 18:12 49.21891 18.58813 36002 ft 431 kts 331°
2026-05-04 18:12 49.27203 18.54538 36005 ft 431 kts 331°
2026-05-04 18:13 49.32514 18.50267 36008 ft 432 kts 330°
2026-05-04 18:14 49.40497 18.43843 36021 ft 432 kts 332°
2026-05-04 18:14 49.45943 18.39907 36021 ft 433 kts 334°
2026-05-04 18:15 49.56962 18.32406 36022 ft 433 kts 334°
2026-05-04 18:16 49.62468 18.28512 36021 ft 432 kts 333°
2026-05-04 18:16 49.67922 18.24622 36025 ft 432 kts 333°
2026-05-04 18:17 49.76103 18.18814 36021 ft 431 kts 333°
2026-05-04 18:18 49.83365 18.13652 36015 ft 431 kts 333°
2026-05-04 18:18 49.88818 18.09761 36012 ft 431 kts 333°
2026-05-04 18:19 49.96987 18.03897 35998 ft 431 kts 333°
2026-05-04 18:19 50.02430 17.99988 35988 ft 431 kts 333°
2026-05-04 18:20 50.07981 17.96427 35982 ft 432 kts 337°
2026-05-04 18:20 50.13652 17.93284 35979 ft 433 kts 338°
2026-05-04 18:21 50.19336 17.90160 35975 ft 433 kts 338°
2026-05-04 18:21 50.25002 17.86902 35968 ft 434 kts 337°
2026-05-04 18:22 50.30670 17.83573 35958 ft 436 kts 337°
2026-05-04 18:22 50.36351 17.80241 35959 ft 436 kts 337°
2026-05-04 18:23 50.42044 17.76908 35957 ft 437 kts 337°
2026-05-04 18:23 50.47742 17.73569 35957 ft 437 kts 337°
2026-05-04 18:24 50.53450 17.70244 35961 ft 438 kts 337°
2026-05-04 18:24 50.59164 17.66925 35959 ft 438 kts 337°
2026-05-04 18:25 50.62022 17.65265 35962 ft 438 kts 337°
2026-05-04 18:25 50.70713 17.60173 35961 ft 438 kts 336°
2026-05-04 18:26 50.76432 17.56816 35960 ft 439 kts 336°
2026-05-04 18:26 50.82151 17.53450 35963 ft 439 kts 336°
2026-05-04 18:27 50.87871 17.50077 35961 ft 439 kts 336°
2026-05-04 18:27 50.93592 17.46700 35962 ft 439 kts 336°
2026-05-04 18:28 50.99313 17.43310 35966 ft 439 kts 336°
2026-05-04 18:28 51.05029 17.39902 35967 ft 439 kts 336°
2026-05-04 18:29 51.10746 17.36489 35966 ft 439 kts 336°
2026-05-04 18:29 51.14571 17.34208 35967 ft 439 kts 336°
2026-05-04 18:30 51.22909 17.29210 35965 ft 439 kts 336°
2026-05-04 18:31 51.30511 17.24638 35967 ft 438 kts 336°
2026-05-04 18:31 51.36220 17.21205 35964 ft 438 kts 336°
2026-05-04 18:32 51.41924 17.17756 35967 ft 438 kts 335°
2026-05-04 18:32 51.47625 17.14296 35961 ft 438 kts 335°
2026-05-04 18:33 51.53283 17.10855 35962 ft 438 kts 335°
2026-05-04 18:33 51.58974 17.07375 35963 ft 438 kts 335°
2026-05-04 18:34 51.64703 17.03873 35964 ft 437 kts 335°
2026-05-04 18:34 51.70394 17.00392 35965 ft 437 kts 335°
2026-05-04 18:35 51.76043 16.96922 35967 ft 437 kts 335°
2026-05-04 18:35 51.81769 16.93398 35965 ft 437 kts 335°
2026-05-04 18:36 51.87452 16.89887 35965 ft 437 kts 335°
2026-05-04 18:36 51.93092 16.86383 35967 ft 437 kts 335°
2026-05-04 18:37 51.98773 16.82855 35968 ft 437 kts 335°
2026-05-04 18:37 52.04454 16.79321 35967 ft 437 kts 335°
2026-05-04 18:38 52.10132 16.75782 35970 ft 437 kts 334°
2026-05-04 18:38 52.15803 16.72225 35969 ft 437 kts 334°
2026-05-04 18:39 52.21473 16.68659 35968 ft 437 kts 334°
2026-05-04 18:39 52.27151 16.65102 35965 ft 437 kts 334°
2026-05-04 18:40 52.32825 16.61515 35965 ft 437 kts 334°
2026-05-04 18:40 52.38497 16.57909 35962 ft 437 kts 334°
2026-05-04 18:41 52.44168 16.54304 35963 ft 437 kts 334°
2026-05-04 18:41 52.49841 16.50689 35962 ft 437 kts 334°
2026-05-04 18:42 52.55519 16.47066 35959 ft 438 kts 334°
2026-05-04 18:42 52.61200 16.43443 35957 ft 438 kts 334°
2026-05-04 18:43 52.66885 16.39794 35962 ft 439 kts 334°
2026-05-04 18:43 52.72570 16.36125 35966 ft 439 kts 333°
2026-05-04 18:44 52.78258 16.32448 35972 ft 439 kts 333°
2026-05-04 18:44 52.83949 16.28760 35974 ft 439 kts 333°
2026-05-04 18:45 52.89641 16.25057 35982 ft 440 kts 333°
2026-05-04 18:45 52.95337 16.21347 35980 ft 440 kts 333°
2026-05-04 18:46 53.01030 16.17644 35983 ft 439 kts 333°
2026-05-04 18:46 53.06717 16.13922 35988 ft 439 kts 333°
2026-05-04 18:47 53.12398 16.10184 35986 ft 439 kts 333°
2026-05-04 18:47 53.18075 16.06438 35991 ft 439 kts 333°
2026-05-04 18:48 53.23753 16.02694 35996 ft 439 kts 333°
2026-05-04 18:48 53.29425 15.98940 35997 ft 438 kts 333°
2026-05-04 18:49 53.35092 15.95173 35999 ft 438 kts 333°
2026-05-04 18:49 53.40759 15.91394 36000 ft 438 kts 333°
2026-05-04 18:50 53.44038 15.89202 36004 ft 438 kts 333°
2026-05-04 18:50 53.49699 15.85405 36005 ft 438 kts 333°
2026-05-04 18:51 53.55364 15.81609 36009 ft 438 kts 333°
2026-05-04 18:51 53.61027 15.77800 36008 ft 438 kts 333°
2026-05-04 18:52 53.66693 15.73980 36013 ft 438 kts 333°
2026-05-04 18:52 53.72356 15.70155 36017 ft 438 kts 333°
2026-05-04 18:53 53.78016 15.66307 36017 ft 438 kts 332°
2026-05-04 18:53 53.83674 15.62441 36014 ft 438 kts 332°
2026-05-04 18:54 53.89335 15.58586 36013 ft 439 kts 332°
2026-05-04 18:54 53.94992 15.54715 36014 ft 439 kts 332°
2026-05-04 18:55 54.00650 15.50826 36014 ft 438 kts 332°
2026-05-04 18:55 54.09124 15.44977 36010 ft 438 kts 332°
2026-05-04 18:56 54.14780 15.41066 36008 ft 439 kts 332°
2026-05-04 18:56 54.20436 15.37139 36008 ft 439 kts 332°
2026-05-04 18:57 54.26097 15.33203 35864 ft 439 kts 332°
2026-05-04 18:57 54.28928 15.31229 35689 ft 439 kts 332°
2026-05-04 18:57 54.31757 15.29254 35439 ft 439 kts 331°
2026-05-04 18:58 54.34581 15.27275 35194 ft 439 kts 331°
2026-05-04 18:58 54.37405 15.25292 34948 ft 438 kts 331°
2026-05-04 18:58 54.40224 15.23310 34711 ft 438 kts 330°
2026-05-04 18:58 54.43045 15.21323 34396 ft 438 kts 330°
2026-05-04 18:59 54.45863 15.19337 34043 ft 437 kts 330°
2026-05-04 18:59 54.48677 15.17349 33631 ft 437 kts 330°
2026-05-04 18:59 54.51491 15.15361 33233 ft 437 kts 330°
2026-05-04 18:59 54.54310 15.13370 32836 ft 438 kts 330°
2026-05-04 19:00 54.57126 15.11380 32445 ft 437 kts 330°
2026-05-04 19:00 54.59938 15.09386 32044 ft 437 kts 330°
2026-05-04 19:00 54.62752 15.07388 31654 ft 437 kts 329°
2026-05-04 19:00 54.65561 15.05394 31272 ft 437 kts 329°
2026-05-04 19:01 54.68368 15.03399 30890 ft 436 kts 329°
2026-05-04 19:01 54.71171 15.01399 30448 ft 436 kts 329°
2026-05-04 19:01 54.73971 14.99397 29948 ft 435 kts 329°
2026-05-04 19:01 54.76765 14.97391 29385 ft 435 kts 329°
2026-05-04 19:02 54.79567 14.95375 28823 ft 437 kts 329°
2026-05-04 19:02 54.82381 14.93347 28269 ft 439 kts 329°
2026-05-04 19:02 54.85208 14.91308 27735 ft 441 kts 329°
2026-05-04 19:02 54.88053 14.89259 27207 ft 444 kts 329°
2026-05-04 19:03 54.90913 14.87197 26684 ft 446 kts 329°
2026-05-04 19:03 54.93592 14.84636 26170 ft 435 kts 316°
2026-05-04 19:03 54.95748 14.81062 25657 ft 425 kts 303°
2026-05-04 19:03 54.97406 14.76828 25182 ft 424 kts 298°
2026-05-04 19:04 54.99010 14.72491 24697 ft 428 kts 298°
2026-05-04 19:04 55.00618 14.68116 24219 ft 430 kts 298°
2026-05-04 19:04 55.01687 14.65199 23903 ft 432 kts 298°
2026-05-04 19:04 55.03307 14.60776 23440 ft 433 kts 298°
2026-05-04 19:05 55.04929 14.56356 22884 ft 432 kts 298°
2026-05-04 19:05 55.06547 14.51951 22345 ft 430 kts 299°
2026-05-04 19:05 55.08159 14.47567 21820 ft 428 kts 299°
2026-05-04 19:05 55.09761 14.43198 21297 ft 426 kts 299°
2026-05-04 19:06 55.11355 14.38840 20787 ft 424 kts 299°
2026-05-04 19:06 55.12937 14.34504 20287 ft 422 kts 299°
2026-05-04 19:06 55.14513 14.30180 19789 ft 420 kts 299°
2026-05-04 19:06 55.16073 14.25887 19304 ft 417 kts 300°
2026-05-04 19:07 55.17612 14.21642 18819 ft 407 kts 299°
2026-05-04 19:07 55.19107 14.17512 18343 ft 396 kts 299°
2026-05-04 19:07 55.20562 14.13486 17819 ft 387 kts 299°
2026-05-04 19:07 55.21985 14.09541 17482 ft 377 kts 299°
2026-05-04 19:08 55.23355 14.05738 17303 ft 363 kts 299°
2026-05-04 19:08 55.24685 14.02040 16900 ft 353 kts 299°
2026-05-04 19:08 55.25971 13.98452 16428 ft 342 kts 299°
2026-05-04 19:08 55.27215 13.94971 15970 ft 332 kts 299°
2026-05-04 19:09 55.28424 13.91589 15524 ft 323 kts 298°
2026-05-04 19:09 55.29604 13.88278 15058 ft 317 kts 298°
2026-05-04 19:09 55.30764 13.85024 14629 ft 311 kts 298°
2026-05-04 19:09 55.31901 13.81830 14197 ft 306 kts 298°
2026-05-04 19:10 55.33018 13.78686 13763 ft 301 kts 298°
2026-05-04 19:10 55.34120 13.75585 13305 ft 298 kts 298°
2026-05-04 19:10 55.35216 13.72507 12882 ft 296 kts 298°
2026-05-04 19:10 55.36305 13.69448 12490 ft 294 kts 299°
2026-05-04 19:11 55.37385 13.66406 12105 ft 292 kts 299°
2026-05-04 19:11 55.38455 13.63380 11721 ft 290 kts 299°
2026-05-04 19:11 55.39516 13.60372 11345 ft 289 kts 299°
2026-05-04 19:11 55.40572 13.57377 10975 ft 287 kts 298°
2026-05-04 19:12 55.41413 13.54231 10601 ft 283 kts 286°
2026-05-04 19:12 55.42542 13.47635 9880 ft 280 kts 285°
2026-05-04 19:12 55.43107 13.44359 9482 ft 279 kts 285°
2026-05-04 19:13 55.43672 13.41095 9084 ft 278 kts 285°
2026-05-04 19:13 55.44233 13.37847 8753 ft 275 kts 285°
2026-05-04 19:13 55.44783 13.34657 8495 ft 269 kts 285°
2026-05-04 19:13 55.45320 13.31526 8235 ft 265 kts 285°
2026-05-04 19:14 55.45804 13.28430 7975 ft 259 kts 278°
2026-05-04 19:14 55.45880 13.25293 7723 ft 255 kts 265°
2026-05-04 19:14 55.45685 13.22216 7473 ft 251 kts 264°
2026-05-04 19:14 55.45497 13.19185 7222 ft 247 kts 264°
2026-05-04 19:15 55.45317 13.16194 6977 ft 244 kts 264°
2026-05-04 19:15 55.45140 13.13255 6796 ft 238 kts 264°
2026-05-04 19:15 55.44965 13.10388 6609 ft 234 kts 264°
2026-05-04 19:15 55.44789 13.07551 6447 ft 232 kts 264°
2026-05-04 19:16 55.44612 13.04729 6293 ft 231 kts 264°
2026-05-04 19:16 55.44436 13.01910 6165 ft 232 kts 264°
2026-05-04 19:16 55.44260 12.99091 6034 ft 232 kts 264°
2026-05-04 19:16 55.44084 12.96275 5903 ft 231 kts 264°
2026-05-04 19:17 55.44075 12.93450 5748 ft 232 kts 277°
2026-05-04 19:17 55.44473 12.90715 5460 ft 232 kts 291°
2026-05-04 19:17 55.45094 12.88103 5167 ft 230 kts 291°
2026-05-04 19:17 55.45708 12.85499 4920 ft 230 kts 291°
2026-05-04 19:18 55.46404 12.82976 4766 ft 231 kts 304°
2026-05-04 19:18 55.47598 12.81081 4664 ft 235 kts 329°
2026-05-04 19:18 55.49172 12.80254 4562 ft 241 kts 354°
2026-05-04 19:18 55.50839 12.80715 4458 ft 247 kts 15°
2026-05-04 19:19 55.52473 12.81663 4378 ft 248 kts 15°
2026-05-04 19:19 55.54105 12.82615 4304 ft 247 kts 15°
2026-05-04 19:19 55.55735 12.83562 4227 ft 247 kts 15°
2026-05-04 19:19 55.57343 12.84615 4124 ft 246 kts 18°
2026-05-04 19:20 55.58931 12.85753 4015 ft 246 kts 19°
2026-05-04 19:20 55.60506 12.86912 4000 ft 245 kts 19°
2026-05-04 19:20 55.62038 12.88074 4002 ft 237 kts 24°
2026-05-04 19:20 55.63425 12.89658 4003 ft 239 kts 36°
2026-05-04 19:21 55.64672 12.91617 3990 ft 240 kts 38°
2026-05-04 19:21 55.65921 12.93574 3858 ft 239 kts 38°
2026-05-04 19:21 55.67170 12.95506 3679 ft 238 kts 38°
2026-05-04 19:21 55.68410 12.97427 3500 ft 236 kts 38°
2026-05-04 19:22 55.69648 12.99302 3353 ft 229 kts 30°
2026-05-04 19:22 55.71039 13.00486 3231 ft 217 kts 17°
2026-05-04 19:22 55.72432 13.01382 3109 ft 211 kts 16°
2026-05-04 19:22 55.73821 13.02162 3012 ft 207 kts
2026-05-04 19:23 55.75184 13.01791 2994 ft 199 kts 327°
2026-05-04 19:23 55.76136 13.00090 2998 ft 196 kts 301°
2026-05-04 19:23 55.76795 12.97974 2994 ft 196 kts 296°
2026-05-04 19:23 55.77251 12.95707 2993 ft 196 kts 275°
2026-05-04 19:24 55.77227 12.93277 2998 ft 197 kts 267°
2026-05-04 19:24 55.77067 12.90858 2962 ft 198 kts 257°
2026-05-04 19:24 55.76480 12.88647 2878 ft 201 kts 235°
2026-05-04 19:24 55.75476 12.86909 2811 ft 202 kts 224°
2026-05-04 19:25 55.74445 12.85302 2717 ft 192 kts 225°
2026-05-04 19:25 55.73462 12.83766 2620 ft 186 kts 225°
2026-05-04 19:25 55.72502 12.82265 2555 ft 181 kts 225°
2026-05-04 19:25 55.71560 12.80795 2411 ft 179 kts 225°
2026-05-04 19:26 55.70632 12.79346 2191 ft 177 kts 225°
2026-05-04 19:26 55.69710 12.77908 1952 ft 176 kts 225°
2026-05-04 19:26 55.68799 12.76490 1720 ft 171 kts 225°
2026-05-04 19:26 55.67940 12.75155 1494 ft 158 kts 225°
2026-05-04 19:27 55.67148 12.73923 1289 ft 149 kts 225°
2026-05-04 19:27 55.66373 12.72715 1119 ft 149 kts 225°
2026-05-04 19:27 55.65606 12.71523 873 ft 142 kts 225°
2026-05-04 19:27 55.64875 12.70387 678 ft 138 kts 224°
2026-05-04 19:28 55.64155 12.69269 488 ft 137 kts 224°
2026-05-04 19:28 55.63439 12.68158 303 ft 138 kts 224°
2026-05-04 19:28 55.62721 12.67036 110 ft 137 kts 224°
2026-05-04 19:28 55.62035 12.65966 23 ft 115 kts 221°
2026-05-04 19:29 55.61639 12.65355 22 ft 32 kts 225°
2026-05-04 19:29 55.61627 12.65015 25 ft 23 kts 297°
2026-05-04 19:29 55.61685 12.64882 24 ft 10 kts 314°
2026-05-04 19:29 55.61743 12.64808 24 ft 7 kts 337°
2026-05-04 19:30 55.61799 12.64785 24 ft 10 kts 353°
2026-05-04 19:30 55.61873 12.64794 24 ft 12 kts 18°
2026-05-04 19:30 55.61954 12.64883 23 ft 15 kts 33°
2026-05-04 19:30 55.62039 12.64979 25 ft 9 kts 33°
2026-05-04 19:31 55.62075 12.65022 24 ft 6 kts 34°
2026-05-04 19:31 55.62116 12.65071 26 ft 7 kts 34°
2026-05-04 19:31 55.62127 12.65084 25 ft 0 kts 33°
2026-05-04 19:32 55.62131 12.65088 24 ft 2 kts 33°
2026-05-04 19:32 55.62153 12.65114 25 ft 6 kts 32°
2026-05-04 19:33 55.62199 12.65166 24 ft 10 kts 32°
2026-05-04 19:33 55.62270 12.65196 24 ft 11 kts 359°
2026-05-04 19:33 55.62339 12.65204 24 ft 10 kts
2026-05-04 19:33 55.62397 12.65200 25 ft 8 kts 358°
2026-05-04 19:34 55.62440 12.65255 24 ft 9 kts 77°
2026-05-04 19:34 55.62442 12.65385 24 ft 11 kts 89°
2026-05-04 19:34 55.62443 12.65489 24 ft 5 kts 88°
2026-05-04 19:34 55.62470 12.65535 24 ft 7 kts 22°
2026-05-04 19:35 55.62504 12.65561 24 ft 2 kts 24°
2026-05-04 19:35 55.62518 12.65571 24 ft 2 kts 23°
2026-05-04 19:35 55.62522 12.65574 24 ft 0 kts 23°